CW6617 Weather Reports


time (UTC)temp
C
wind
direction
speed
KPH
gust
KPH
rain 1hr
cm
rain 24hr
cm
rain mn
cm
humidity
%
barometer
mb
20260504081703 12 341 3.2 9.7 0.00 0.00 0.00 91 1013.7
20260504081204 12 52 6.4 14.5 0.00 0.00 0.00 91 1013.7
20260504080704 12 357 4.8 16.1 0.00 0.00 0.00 91 1013.7
20260504080204 12 45 4.8 16.1 0.00 0.00 0.00 91 1013.7
20260504070204 12 96 3.2 8.0 0.00 0.00 0.00 92 1013.1
20260504060204 12 175 1.6 3.2 0.00 0.00 0.00 93 1012.6
20260504050704 12 175 0.0 0.0 0.00 0.00 0.00 93 1012.2
20260504044704 12 175 0.0 0.0 0.00 0.00 0.00 93 1012.0
20260504044204 12 175 0.0 0.0 0.00 0.00 0.00 93 1012.0
20260504043703 12 175 0.0 0.0 0.00 0.00 0.00 93 1012.0
20260504043204 12 175 0.0 0.0 0.00 0.00 0.00 93 1012.0
20260504041704 12 175 0.0 0.0 0.00 0.00 0.00 93 1012.1
20260504041204 12 175 0.0 0.0 0.00 0.00 0.00 93 1012.1
20260504040703 12 175 0.0 0.0 0.00 0.00 0.00 93 1012.0
20260504034203 12 175 0.0 0.0 0.00 0.00 0.00 93 1012.0
20260504033704 12 175 0.0 0.0 0.00 0.00 0.00 93 1012.0
20260504033204 12 175 0.0 1.6 0.00 0.00 0.00 93 1012.0
20260504031204 12 175 1.6 3.2 0.00 0.00 0.00 93 1012.1
20260504030704 12 175 0.0 3.2 0.00 0.00 0.00 93 1012.0
20260504030204 12 175 1.6 4.8 0.00 0.00 0.00 93 1012.0
20260504024704 12 175 1.6 4.8 0.00 0.00 0.00 93 1012.0
20260504024204 12 175 1.6 4.8 0.00 0.00 0.00 93 1012.0
20260504023704 12 175 1.6 3.2 0.00 0.00 0.00 93 1011.9
20260504023204 12 175 0.0 1.6 0.00 0.00 0.00 93 1011.9
20260504021704 12 175 0.0 1.6 0.00 0.00 0.00 93 1011.9
20260504021203 12 175 0.0 0.0 0.00 0.00 0.00 93 1011.9
20260504020204 12 175 1.6 3.2 0.00 0.00 0.00 93 1011.8
20260504014704 12 175 1.6 4.8 0.00 0.00 0.00 93 1011.8
20260504014203 12 177 3.2 8.0 0.00 0.00 0.00 93 1011.8
20260504013704 12 197 0.0 3.2 0.00 0.00 0.00 93 1011.8
20260504013204 12 197 3.2 4.8 0.00 0.00 0.00 93 1011.8
20260504011204 12 198 0.0 1.6 0.00 0.00 0.00 93 1011.7
20260504010203 12 198 0.0 4.8 0.00 0.00 0.00 92 1011.7
20260504004703 12 190 0.0 1.6 0.00 0.00 0.00 92 1011.7
20260504004204 12 190 0.0 1.6 0.00 0.00 0.00 92 1011.8
20260504003704 12 190 3.2 8.0 0.00 0.00 0.00 92 1011.8
20260504003204 12 192 1.6 4.8 0.00 0.00 0.00 92 1011.8
20260504001204 12 226 0.0 3.2 0.00 0.00 0.00 91 1011.7
20260504000703 12 227 1.6 8.0 0.00 0.00 0.00 91 1011.6
20260504000204 12 243 0.0 3.2 0.00 0.00 0.00 90 1011.6
20260503234704 12 250 0.0 3.2 0.00 0.00 0.00 90 1011.6
20260503234203 12 257 1.6 3.2 0.00 0.00 0.00 90 1011.6
20260503233704 12 234 1.6 4.8 0.00 0.00 0.00 90 1011.7
20260503233204 12 172 0.0 4.8 0.00 0.00 0.00 90 1011.6
20260503231703 12 171 1.6 4.8 0.00 0.00 0.00 89 1011.6
20260503231203 12 171 1.6 9.7 0.00 0.00 0.00 89 1011.5
20260503230704 12 171 4.8 9.7 0.00 0.00 0.00 89 1011.5
20260503230203 12 173 3.2 4.8 0.00 0.00 0.00 88 1011.5
20260503224704 13 178 1.6 4.8 0.00 0.00 0.00 88 1011.4
20260503224204 13 178 1.6 9.7 0.00 0.00 0.00 88 1011.4
20260503223703 13 161 4.8 11.3 0.00 0.00 0.00 88 1011.4
20260503223203 13 174 1.6 3.2 0.00 0.00 0.00 88 1011.4
20260503221704 13 174 3.2 9.7 0.00 0.00 0.00 87 1011.3
20260503221204 13 174 0.0 3.2 0.00 0.00 0.00 87 1011.3
20260503220704 13 174 1.6 3.2 0.00 0.00 0.00 87 1011.3
20260503220204 13 174 3.2 4.8 0.00 0.00 0.00 87 1011.3
20260503214703 13 177 0.0 4.8 0.00 0.00 0.00 87 1011.2
20260503214204 13 177 1.6 4.8 0.00 0.00 0.00 87 1011.2
20260503213704 13 178 1.6 4.8 0.00 0.00 0.00 87 1011.2
20260503213204 13 178 1.6 4.8 0.00 0.00 0.00 87 1011.2
20260503211204 13 178 3.2 8.0 0.00 0.00 0.00 86 1011.0
20260503210703 13 178 1.6 8.0 0.00 0.00 0.00 85 1011.0
20260503210204 13 179 0.0 4.8 0.00 0.00 0.00 85 1010.8
20260503204704 14 179 3.2 9.7 0.00 0.00 0.00 84 1010.6
20260503204204 14 178 0.0 3.2 0.00 0.00 0.00 83 1010.6
20260503203704 14 177 1.6 4.8 0.00 0.00 0.00 83 1010.4
20260503203204 14 178 1.6 4.8 0.00 0.00 0.00 82 1010.4
20260503201703 15 178 1.6 8.0 0.00 0.00 0.00 81 1010.2
20260503201203 15 175 3.2 8.0 0.00 0.00 0.00 80 1010.1
20260503200203 15 179 3.2 8.0 0.00 0.00 0.00 78 1010.0
20260503194203 15 188 4.8 14.5 0.00 0.00 0.00 77 1010.0
20260503193704 15 171 8.0 11.3 0.00 0.00 0.00 77 1009.8
20260503193204 15 178 3.2 9.7 0.00 0.00 0.00 77 1009.8
20260503191203 16 180 1.6 8.0 0.00 0.00 0.00 75 1009.6
20260503190704 16 179 1.6 4.8 0.00 0.00 0.00 75 1009.6
20260503190204 16 179 1.6 4.8 0.00 0.00 0.00 75 1009.6
20260503184704 16 178 1.6 4.8 0.00 0.00 0.00 74 1009.4
20260503184204 16 178 3.2 8.0 0.00 0.00 0.00 74 1009.3
20260503183704 16 177 3.2 9.7 0.00 0.00 0.00 74 1009.2
20260503183205 17 167 3.2 11.3 0.00 0.00 0.00 74 1009.3
20260503181704 17 157 1.6 11.3 0.00 0.00 0.00 74 1009.1
20260503181203 17 165 4.8 11.3 0.00 0.00 0.00 73 1009.2
20260503180703 17 190 1.6 4.8 0.00 0.00 0.00 73 1009.1
20260503180204 17 192 3.2 4.8 0.00 0.00 0.00 72 1009.0
20260503174704 17 191 0.0 4.8 0.00 0.00 0.00 70 1008.9
20260503174203 18 264 0.0 1.6 0.00 0.00 0.00 70 1008.8
20260503173704 18 264 0.0 3.2 0.00 0.00 0.00 68 1008.8
20260503173204 18 289 1.6 8.0 0.00 0.00 0.00 67 1008.8
20260503171704 19 184 3.2 11.3 0.00 0.00 0.00 67 1008.9
20260503171204 19 188 3.2 8.0 0.00 0.00 0.00 68 1008.9
20260503170704 18 235 1.6 4.8 0.00 0.00 0.00 69 1008.8
20260503170204 18 234 1.6 12.9 0.00 0.00 0.00 69 1008.9
20260503160205 18 218 3.2 14.5 0.00 0.13 0.00 67 1009.2
20260503150704 19 289 1.6 12.9 0.00 0.20 0.00 66 1009.2
20260503150203 20 186 4.8 14.5 0.00 0.20 0.00 68 1009.2
20260503140204 17 235 4.8 11.3 0.00 0.20 0.00 72 1009.4
20260503131204 17 248 4.8 12.9 0.00 0.20 0.00 70 1009.6
20260503130704 17 175 3.2 9.7 0.00 0.20 0.00 72 1009.6
20260503130204 17 234 1.6 9.7 0.00 0.20 0.00 72 1009.6
20260503120203 16 244 1.6 12.9 0.00 0.20 0.00 72 1009.6
20260503110704 15 193 1.6 12.9 0.00 0.20 0.00 79 1009.9
20260503110204 15 226 1.6 4.8 0.00 0.20 0.00 79 1009.8
20260503100204 15 202 1.6 9.7 0.00 0.20 0.00 82 1009.8
20260503090204 13 244 1.6 11.3 0.00 0.20 0.00 84 1010.1